TimeCEST,TemperatureF,Dew PointF,Humidity,Sea Level PressureIn,VisibilityMPH,Wind Direction,Wind SpeedMPH,Gust SpeedMPH,PrecipitationIn,Events,Conditions,WindDirDegrees,DateUTC
2:00 AM,56,47,64,30.14,19,Calm,Calm,,,,Clear,,2012-10-09 00:00:00
6:00 AM,53.6,50.0,88,30.12,-9999.0,Calm,Calm,-,N/A,,Clear,0,2012-10-09 04:00:00
6:30 AM,51.8,48.2,88,30.12,-9999.0,Calm,Calm,-,N/A,,Clear,0,2012-10-09 04:30:00
7:30 AM,51.8,48.2,88,30.12,-9999.0,Calm,Calm,-,N/A,,Clear,0,2012-10-09 05:30:00
8:00 AM,49,44,76,30.16,9,Calm,Calm,,,,,,2012-10-09 06:00:00
8:00 AM,51.8,48.2,88,30.12,-9999.0,Calm,Calm,-,N/A,,Clear,0,2012-10-09 06:00:00
8:30 AM,51.8,48.2,88,30.15,-9999.0,Calm,Calm,-,N/A,,Clear,0,2012-10-09 06:30:00
9:00 AM,51.8,50.0,94,30.15,-9999.0,Calm,Calm,-,N/A,,Clear,0,2012-10-09 07:00:00
9:30 AM,55.4,50.0,82,30.15,4.3,Calm,Calm,-,N/A,,Partly Cloudy,0,2012-10-09 07:30:00
10:00 AM,59.0,51.8,77,30.15,-9999.0,Calm,Calm,-,N/A,,Clear,0,2012-10-09 08:00:00
10:30 AM,60.8,51.8,72,30.18,-9999.0,Calm,Calm,-,N/A,,Clear,0,2012-10-09 08:30:00
11:00 AM,64.4,51.8,64,30.18,-9999.0,Calm,Calm,-,N/A,,Clear,0,2012-10-09 09:00:00
11:30 AM,68.0,51.8,56,30.18,-9999.0,Calm,Calm,-,N/A,,Clear,0,2012-10-09 09:30:00
12:00 PM,71.6,50.0,46,30.15,-9999.0,Calm,Calm,-,N/A,,Clear,0,2012-10-09 10:00:00
1:00 PM,77.0,50.0,39,30.12,-9999.0,Calm,Calm,-,N/A,,Clear,0,2012-10-09 11:00:00
1:30 PM,78.8,50.0,36,30.12,-9999.0,Variable,1.2,-,N/A,,Clear,0,2012-10-09 11:30:00
2:00 PM,81,48,21,30.01,19,Calm,Calm,,,,,,2012-10-09 12:00:00
2:00 PM,80.6,51.8,37,30.09,-9999.0,Variable,1.2,-,N/A,,Clear,0,2012-10-09 12:00:00
2:30 PM,82.4,50.0,32,30.09,-9999.0,Variable,2.3,-,N/A,,Clear,0,2012-10-09 12:30:00
3:00 PM,84.2,48.2,29,30.06,-9999.0,Variable,2.3,-,N/A,,Clear,0,2012-10-09 13:00:00
3:30 PM,86.0,46.4,25,30.06,-9999.0,Variable,2.3,-,N/A,,Clear,0,2012-10-09 13:30:00
4:00 PM,87.8,44.6,22,30.06,-9999.0,Variable,1.2,-,N/A,,Clear,0,2012-10-09 14:00:00
4:30 PM,89.6,44.6,21,30.04,-9999.0,Variable,1.2,-,N/A,,Clear,0,2012-10-09 14:30:00
5:00 PM,89.6,42.8,20,30.04,-9999.0,Variable,2.3,-,N/A,,Clear,0,2012-10-09 15:00:00
5:30 PM,89.6,44.6,21,30.04,-9999.0,Variable,2.3,-,N/A,,Clear,0,2012-10-09 15:30:00
6:00 PM,89.6,48.2,24,30.04,-9999.0,West,3.5,-,N/A,,Clear,280,2012-10-09 16:00:00
6:30 PM,87.8,44.6,22,30.04,-9999.0,West,4.6,-,N/A,,Clear,270,2012-10-09 16:30:00
7:00 PM,84.2,50.0,30,30.04,-9999.0,West,6.9,-,N/A,,Clear,260,2012-10-09 17:00:00
7:30 PM,84.2,50.0,30,30.04,-9999.0,West,5.8,-,N/A,,Clear,260,2012-10-09 17:30:00
8:00 PM,78,50,27,29.95,19,WSW,6.9,,,,,240,2012-10-09 18:00:00
8:00 PM,78.8,53.6,42,30.04,-9999.0,WSW,5.8,-,N/A,,Clear,250,2012-10-09 18:00:00
8:30 PM,75.2,53.6,47,30.06,-9999.0,WSW,3.5,-,N/A,,Clear,240,2012-10-09 18:30:00
9:00 PM,77.0,53.6,44,30.06,-9999.0,Calm,Calm,-,N/A,,Clear,0,2012-10-09 19:00:00
9:30 PM,71.6,55.4,57,30.06,-9999.0,South,3.5,-,N/A,,Clear,190,2012-10-09 19:30:00
10:00 PM,71.6,55.4,57,30.06,-9999.0,Variable,1.2,-,N/A,,Clear,0,2012-10-09 20:00:00
10:30 PM,71.6,55.4,57,30.06,-9999.0,Variable,1.2,-,N/A,,Clear,0,2012-10-09 20:30:00
11:00 PM,66.2,57.2,73,30.09,-9999.0,Calm,Calm,-,N/A,,Clear,0,2012-10-09 21:00:00
11:30 PM,66.2,57.2,73,30.09,-9999.0,Calm,Calm,-,N/A,,Clear,0,2012-10-09 21:30:00